This is the latest recevied weather packets stored in our database for station/object K9VSK-9. If no packets are shown the sender has not sent any weather packets the latest 10 day(s).
| Time | Temp. | Humidity | Pressure | Rain* | Wind** | Luminosity | Snow |
|---|---|---|---|---|---|---|---|
| 1788034959 | 25.56° C | 79% | 1018.4 hPa | 0 mm | - | - | - |
| 1788034657 | 25.56° C | 78% | 1018.5 hPa | 0 mm | - | - | - |
| 1788034409 | 25.56° C | 78% | 1018.7 hPa | 0 mm | - | - | - |
| 1788034358 | 25.56° C | 78% | 1018.5 hPa | 0 mm | - | - | - |
| 1788034057 | 25.56° C | 78% | 1018.7 hPa | 0 mm | - | - | - |
| 1788033757 | 25.56° C | 78% | 1018.7 hPa | 0 mm | - | - | - |
| 1788033457 | 25.56° C | 78% | 1019 hPa | 0 mm | - | - | - |
| 1788033094 | 25.56° C | 77% | 1019 hPa | 0 mm | - | - | - |
| 1788032857 | 25.56° C | 77% | 1019 hPa | 0 mm | - | - | - |
| 1788032556 | 25.56° C | 76% | 1019 hPa | 0 mm | - | - | - |
| 1788032256 | 26.11° C | 77% | 1019.3 hPa | 0 mm | - | - | - |
| 1788031956 | 26.11° C | 76% | 1019.4 hPa | 0 mm | - | - | - |
| 1788031655 | 26.11° C | 79% | 1019.6 hPa | 0 mm | - | - | - |
| 1788031055 | 25.56° C | 76% | 1019.4 hPa | 0 mm | - | - | - |
| 1788030831 | 26.11° C | 76% | 1019.6 hPa | 0 mm | - | - | - |
| 1788030755 | 26.11° C | 76% | 1019.5 hPa | 0 mm | - | - | - |
| 1788030454 | 26.11° C | 76% | 1019.6 hPa | 0 mm | - | - | - |
| 1788030153 | 26.11° C | 77% | 1019.7 hPa | 0 mm | - | - | - |
| 1788030062 | 26.11° C | 80% | 1019.8 hPa | 0 mm | - | - | - |
| 1788029854 | 26.11° C | 80% | 1019.8 hPa | 0 mm | - | - | - |
| 1788029554 | 25.56° C | 80% | 1019.8 hPa | 0 mm | - | - | - |
| 1788029500 | 25.56° C | 78% | 1020.1 hPa | 0 mm | - | - | - |
| 1788029252 | 25.56° C | 78% | 1020.1 hPa | 0 mm | - | - | - |
| 1788028952 | 25.56° C | 79% | 1020.1 hPa | 0 mm | - | - | - |
| 1788028653 | 25.56° C | 78% | 1020 hPa | 0 mm | - | - | - |
* Rain latest hour (hover to see other rain measurements)
** Current wind speed in m/s (hover to see current wind gust speed)